Location: Centerville
(32.8776°N, 96.6203°W)
Time: 04:06:28
(UTC+00:00)

IRS-1D - Pass Details

Date: 17 June 2021
Orbit: 739 x 817 km, 98.6° (Epoch: 29 July)

Event Time Altitude Azimuth Distance (km) Brightness Sun altitude
Rises 08:44:34 0° 12° (NNE) 3,266 7.9 -24.9°
Reaches altitude 10° 08:46:55 10° 13° (NNE) 2,323 6.9 -24.6°
Maximum altitude 08:52:02 90° 322° (NW) 766 3.4 -24.0°
Enters shadow 08:52:49 65° 194° (SSW) 833 3.4 -23.9°
